Location: Izdebno
(52.6670°N, 16.2170°E)
Time: 05:42:30
(UTC+02:00)

Vanguard 1 - Pass Details

Date: 28 February 2024
Orbit: 653 x 3825 km, 34.2° (Epoch: 22 April)

Event Time Altitude Azimuth Distance (km) Brightness Sun altitude
Rises 19:06:13 0° 225° (SW) 5,090 14.3 -15.2°
Reaches altitude 10° 19:09:26 10° 216° (SW) 4,476 13.8 -15.7°
Maximum altitude 19:20:58 35° 157° (SSE) 3,949 12.8 -17.4°
Enters shadow 19:31:41 22° 113° (ESE) 5,483 13.2 -19.0°
